Theta_e
312 312 310 309 308 308 307 306 306 306 307 308 310 312 311 312 314 314 315 319 322 322 322 322 322 322 322 322 322 323 325 325 325 326 325 325 325 325 325 324 325 325 325 324 323 325 325 322 321 322 322 321 322 322 322 321 319 317 315 314 314 313 313
313 313 311 309 307 307 307 307 306 306 306 308 310 311 312 313 315 316 317 321 322 322 322 322 321 321 321 321 321 322 322 322 323 324 324 324 325 325 325 325 325 324 324 323 322 324 324 322 320 319 318 318 319 318 318 318 317 315 314 313 313 313 313
316 317 314 310 307 307 307 307 306 306 306 307 308 310 312 314 316 317 319 320 321 321 320 320 320 320 320 320 319 319 319 320 322 323 323 323 324 325 325 325 325 325 324 324 323 323 323 322 320 318 316 316 317 316 314 315 314 314 314 313 313 314 315
316 318 315 310 308 307 307 307 306 305 305 306 307 309 313 314 314 315 316 317 317 317 317 318 318 316 315 314 315 316 318 320 322 322 323 323 324 324 325 325 325 324 324 324 324 323 322 321 319 316 315 315 316 314 313 314 313 313 314 314 314 315 316
315 317 314 309 308 307 306 306 305 305 305 305 308 311 313 313 313 311 310 310 311 312 311 310 308 307 307 309 312 316 319 321 321 320 319 319 320 322 323 324 324 323 323 323 322 321 321 321 319 316 314 314 314 314 313 313 313 313 314 314 314 314 315
318 318 313 308 308 307 307 307 305 305 305 305 308 312 312 312 311 308 306 306 307 307 306 304 303 303 306 309 313 316 317 317 315 312 310 309 311 314 317 318 318 317 317 315 313 312 312 314 317 317 314 314 314 313 313 313 313 313 313 314 313 313 312
320 317 310 309 312 309 308 309 306 305 305 305 307 311 311 310 308 305 305 305 305 305 305 305 305 305 306 308 309 310 309 308 307 306 305 305 305 307 309 309 308 308 307 306 304 304 304 305 309 310 310 310 312 313 312 312 313 312 312 312 312 310 309
319 314 310 312 315 311 307 308 306 305 305 305 306 309 310 308 306 305 305 306 305 306 305 305 305 306 306 305 305 305 305 305 305 305 304 305 304 304 304 304 304 303 303 303 304 304 304 303 303 304 305 308 312 313 313 312 312 312 311 310 309 308 307
319 313 310 314 316 312 308 306 305 305 305 305 306 308 308 307 306 305 305 305 306 305 305 305 305 305 305 304 304 305 304 304 304 304 304 304 304 303 303 304 304 306 306 307 307 307 306 305 304 303 304 308 311 313 313 313 312 311 309 308 307 306 305
319 314 311 314 315 312 307 306 306 305 305 305 305 307 306 305 305 305 305 305 306 305 305 304 304 304 304 304 304 304 303 303 303 303 303 303 303 303 304 305 307 309 310 309 310 310 309 308 307 306 306 306 309 311 312 312 310 308 306 305 305 305 305
319 316 313 314 315 311 307 306 306 305 305 305 305 305 305 305 305 305 305 305 305 305 305 304 304 304 304 304 303 303 303 303 303 304 304 304 304 305 306 308 309 311 311 310 310 310 310 310 309 309 309 308 308 308 309 310 308 306 306 306 306 306 306
319 317 314 313 313 310 307 307 307 306 306 306 305 305 305 305 305 305 305 306 306 305 305 305 305 304 304 304 304 304 304 304 305 305 306 306 306 306 307 308 310 310 311 311 311 311 311 310 310 310 310 310 309 309 308 309 308 307 306 307 306 306 306
318 317 315 313 312 310 307 308 308 307 306 306 306 306 305 305 305 305 306 306 306 306 306 305 305 305 305 305 305 305 305 305 306 306 307 307 307 307 307 308 309 310 310 310 310 310 310 310 310 310 310 310 310 310 309 310 310 308 308 307 307 306 306
319 317 315 312 313 311 308 308 309 308 307 307 306 306 306 306 306 305 306 305 306 306 306 306 306 306 306 306 306 306 306 306 306 306 306 306 306 307 307 307 307 308 309 309 310 310 309 309 310 309 310 309 309 310 310 310 310 309 309 308 308 307 307
320 318 316 313 313 313 309 307 309 308 307 307 307 307 306 306 306 306 306 306 306 306 306 306 306 306 306 306 306 306 306 306 306 306 306 306 306 306 307 307 307 307 307 307 308 308 309 309 309 309 309 309 310 311 311 311 310 309 309 309 308 308 308
321 320 318 314 314 315 310 307 308 308 307 307 307 307 307 307 307 307 306 307 307 307 307 307 307 307 307 307 307 307 307 307 307 307 307 307 307 307 307 307 307 307 307 307 307 307 307 307 308 308 308 309 312 312 312 311 311 310 310 309 309 309 308
322 321 319 315 315 316 311 307 308 307 307 307 307 307 307 307 307 307 307 308 308 309 309 309 310 310 310 310 309 309 309 308 308 308 308 309 308 308 308 308 308 308 308 308 307 307 307 307 307 307 308 310 313 313 312 312 312 312 311 310 310 310 310
322 322 319 316 316 316 313 310 309 307 307 307 307 308 308 307 308 308 309 311 312 313 313 313 314 314 314 314 314 313 313 312 311 311 312 312 312 311 310 309 309 309 309 309 308 308 308 307 307 308 308 310 312 312 312 313 313 313 312 311 311 311 310
323 322 320 318 317 317 317 315 312 310 308 308 309 310 310 310 312 311 312 314 316 316 316 316 317 317 317 317 317 316 316 316 315 315 315 315 314 314 313 312 311 310 310 309 309 309 309 309 308 309 309 310 311 312 311 312 312 312 312 311 311 310 310
323 322 320 318 317 318 319 318 316 314 311 309 311 314 314 314 316 316 316 316 317 317 317 317 318 318 318 318 318 317 317 317 317 317 317 316 316 316 316 315 315 313 311 311 310 311 310 309 309 309 309 310 310 311 311 311 311 311 312 312 311 310 309
324 322 320 318 317 318 319 319 318 318 314 310 312 316 317 317 318 318 318 318 318 318 317 317 318 318 318 318 318 317 317 318 318 318 318 317 317 317 317 317 317 316 315 313 312 312 311 311 310 310 310 310 310 310 311 312 312 311 311 311 310 309 308
324 322 321 319 318 318 319 319 319 319 317 313 312 315 317 318 318 319 318 318 318 318 318 318 318 318 317 317 317 317 318 318 319 319 319 318 318 318 317 317 317 317 317 316 315 314 313 313 312 311 311 311 311 311 311 312 312 311 311 310 309 308 308
323 322 321 320 318 317 317 319 319 319 319 317 315 315 315 316 316 318 318 318 318 318 318 319 318 317 316 317 317 317 317 317 318 319 318 318 319 318 318 318 318 318 318 317 316 316 315 314 314 312 311 311 311 312 312 311 312 311 310 310 309 308 307
322 321 321 321 320 319 318 319 319 319 319 319 318 318 317 317 317 318 318 318 318 318 318 318 318 316 315 316 316 315 316 316 317 317 317 317 318 318 318 318 318 318 318 317 317 317 316 316 314 312 311 311 312 312 312 312 311 311 310 310 309 308 307
321 321 321 321 321 321 320 320 319 319 319 318 318 318 318 319 319 319 318 318 317 316 315 316 316 315 315 315 315 316 316 317 317 317 317 318 318 318 318 318 318 318 318 317 318 318 317 315 314 312 311 311 312 312 312 311 310 309 309 309 308 307 306
321 321 321 321 321 321 321 321 320 319 319 318 318 318 319 319 318 318 317 316 316 314 314 315 315 314 315 316 316 317 317 316 315 314 314 314 315 316 318 319 318 318 318 317 317 318 317 315 314 313 312 311 312 311 311 309 309 309 309 308 306 305 304
320 320 320 320 320 320 320 320 320 319 318 318 318 317 317 316 316 315 315 316 315 314 315 316 315 315 316 316 316 315 313 311 309 308 308 307 307 310 313 315 317 318 317 317 317 318 317 315 314 313 312 311 311 310 309 308 309 309 307 306 305 304 304
314 316 317 318 319 320 320 320 320 319 318 317 317 316 316 316 316 316 316 316 317 317 317 317 316 316 316 315 313 311 309 308 307 306 305 305 305 305 306 309 311 314 316 316 317 317 316 315 313 312 312 311 310 309 308 308 308 307 306 305 304 303 303
309 311 314 316 317 318 319 319 319 319 318 317 316 316 317 317 317 317 317 317 317 317 316 316 315 314 314 312 311 309 308 307 306 306 306 307 307 307 307 307 309 312 315 316 317 317 316 315 313 311 311 310 309 308 308 308 308 307 305 304 304 303 303
307 308 311 313 314 315 316 316 316 316 316 316 316 317 317 316 316 316 316 316 315 315 314 313 313 312 312 311 310 309 308 308 308 309 309 309 308 308 308 308 310 313 315 316 317 316 314 313 312 311 310 309 308 308 308 308 307 306 305 304 304 303 303
307 307 308 309 310 311 313 314 314 315 316 316 316 316 315 314 314 314 314 314 313 313 312 311 310 310 309 310 310 309 308 308 309 309 309 310 309 308 308 308 309 311 313 313 314 313 312 311 310 309 309 308 308 308 308 307 305 304 304 303 303 303 303
306 306 307 307 307 308 311 312 312 313 313 313 313 313 313 312 312 312 312 312 311 310 309 308 308 308 308 308 309 309 309 308 309 309 309 309 309 307 306 306 307 309 309 309 309 310 310 309 309 308 308 308 307 307 306 305 304 304 303 303 302 302 301
307 307 306 306 307 307 308 309 309 309 309 309 309 309 309 308 308 308 307 306 306 305 304 304 304 304 304 305 305 307 308 308 308 308 308 308 307 306 305 305 306 306 307 307 308 309 309 308 307 307 307 307 306 305 304 304 303 302 302 301 300 298 297
307 307 307 306 307 307 307 307 307 306 306 305 305 305 304 304 303 303 303 303 302 302 302 302 301 301 301 301 302 303 305 306 307 307 307 307 307 307 306 306 306 306 306 307 308 308 308 307 307 306 306 305 304 304 303 303 302 301 300 298 297 296 295
307 306 306 306 306 307 307 306 306 305 304 304 303 302 302 302 302 302 302 302 303 303 303 302 302 302 302 301 301 301 302 303 305 306 307 308 308 308 308 308 307 307 307 307 307 307 307 307 306 306 305 304 304 303 303 302 300 299 297 296 295 295 294
306 306 305 305 306 306 306 306 306 305 304 304 303 303 302 302 302 302 302 302 302 303 303 303 302 302 302 302 301 301 301 302 305 307 308 309 309 309 308 308 307 307 307 306 306 306 306 306 306 305 304 304 303 302 301 299 297 296 295 295 294 294 294
304 305 304 304 305 305 306 306 306 305 305 305 305 304 303 303 303 303 302 303 303 303 303 303 303 302 302 301 301 301 302 304 306 308 309 309 309 308 307 307 306 306 305 305 305 306 306 305 305 304 303 302 300 298 297 296 295 294 294 294 294 294 294
Wind_Speed
7 8 8 7 7 7 7 7 7 6 4 3 3 3 2 2 2 3 4 6 6 4 4 3 3 3 3 3 3 3 3 4 4 5 6 7 11 12 12 12 10 8 8 8 9 10 10 10 8 5 4 2 1 2 2 1 0 1 2 4 5 6 8
7 8 8 7 7 6 7 7 7 6 5 3 3 2 3 4 4 4 6 7 5 5 5 5 5 4 5 5 5 5 5 5 6 6 6 7 9 10 11 10 9 8 8 9 9 9 11 12 10 8 8 5 3 5 5 3 3 2 4 5 6 7 8
7 8 8 7 6 6 6 6 6 6 5 4 3 4 5 6 5 5 5 5 5 4 3 3 3 3 3 4 5 5 6 7 7 7 7 8 8 9 10 9 8 8 8 9 10 9 10 11 11 11 10 7 6 8 7 5 5 4 4 5 6 7 8
6 6 6 5 6 6 6 6 7 7 6 5 5 6 7 7 6 5 5 4 3 2 1 2 2 3 4 4 5 6 7 8 9 9 9 9 10 10 11 11 9 9 8 8 9 9 10 11 13 14 12 9 9 9 8 6 5 4 4 4 5 6 8
4 3 3 4 5 6 7 7 7 7 6 6 7 8 9 7 6 5 4 3 3 2 1 1 1 2 4 5 7 8 9 10 10 10 10 10 10 11 12 12 11 10 9 9 9 9 10 12 13 15 14 12 11 10 9 7 5 4 4 4 4 5 6
4 2 2 3 4 5 6 7 7 6 6 6 8 9 9 7 6 6 6 6 6 5 5 4 5 6 7 8 9 9 9 10 9 9 8 9 10 11 12 12 11 10 9 9 8 8 9 11 12 13 13 12 10 10 9 6 5 4 3 3 4 4 5
4 3 3 3 3 3 4 5 4 5 5 5 7 8 8 7 7 8 10 10 10 9 8 8 9 10 10 9 9 9 9 9 10 10 10 11 12 12 12 11 11 10 9 9 9 8 9 9 9 10 11 12 11 9 8 7 5 3 1 1 3 4 5
5 4 5 3 3 4 3 3 3 5 5 5 6 8 8 7 8 9 10 10 10 9 9 9 10 10 10 10 10 10 10 11 11 11 12 12 12 13 13 12 12 13 13 13 12 12 11 10 9 8 9 11 12 10 8 6 5 2 0 2 3 5 6
8 7 7 4 5 4 0 1 2 5 5 5 6 7 8 8 8 9 9 9 9 8 9 10 10 10 9 9 9 10 11 12 11 11 12 12 13 14 14 14 15 15 15 15 14 13 12 11 10 10 8 9 10 10 8 6 4 1 1 2 4 6 6
12 9 7 6 8 7 3 3 2 4 5 6 6 7 7 7 7 8 7 7 7 8 9 10 10 10 9 9 9 10 11 12 13 13 13 13 14 15 15 16 16 16 16 15 14 13 13 12 11 10 9 8 8 8 8 7 5 2 1 2 4 6 6
15 12 9 8 9 9 6 4 2 3 5 5 5 6 6 6 6 6 6 6 6 7 8 9 10 10 9 9 9 10 12 12 13 14 14 14 14 14 15 15 15 15 15 15 14 13 13 13 12 11 10 10 8 7 6 6 5 2 1 2 4 6 7
17 14 11 10 10 10 8 6 5 3 4 4 5 6 6 6 5 5 5 5 6 6 7 8 9 9 10 10 10 10 11 11 11 12 13 13 13 13 12 13 13 13 13 12 12 11 11 11 11 11 11 11 10 9 8 6 5 4 4 5 6 7 8
18 15 13 13 12 11 9 9 9 7 4 4 4 6 6 6 6 5 5 5 5 6 6 7 8 8 9 9 9 9 9 10 10 10 10 10 10 10 9 9 9 9 9 9 8 8 8 8 9 9 10 10 10 9 9 8 6 6 6 7 7 8 9
18 14 14 14 12 11 11 13 12 9 6 5 5 6 7 7 7 6 6 5 5 5 5 6 6 6 7 7 7 7 7 7 7 7 7 7 6 6 6 5 5 5 5 5 5 5 5 5 6 6 7 8 8 8 8 8 7 7 7 8 9 9 10
17 15 15 15 13 12 13 15 15 12 8 7 6 6 7 7 7 6 6 5 5 4 4 5 5 5 5 5 5 5 5 5 5 5 5 4 4 4 3 3 3 2 2 2 2 1 1 2 3 4 5 6 6 7 7 8 8 8 8 9 10 11 11
17 16 16 16 14 13 14 16 16 14 10 9 8 7 8 8 7 7 6 6 5 5 4 4 4 4 4 3 3 3 3 3 3 3 4 4 3 3 3 2 2 2 1 0 1 1 1 1 1 2 3 4 4 6 7 8 9 9 9 10 10 11 12
18 17 17 18 15 14 15 17 17 16 13 12 11 9 9 9 9 8 7 6 6 5 5 5 4 3 2 1 1 0 1 1 1 1 2 2 2 3 3 3 3 2 2 2 2 2 3 3 3 2 1 1 2 3 6 8 9 10 10 10 11 11 12
18 18 18 19 17 16 16 16 17 18 16 14 13 11 11 11 10 10 8 7 6 6 6 5 4 3 2 2 2 2 3 2 2 2 1 1 1 2 3 4 4 4 3 3 2 2 3 3 3 3 2 2 2 1 3 5 7 8 9 10 11 12 12
17 17 17 18 18 19 20 17 17 17 16 16 15 13 13 13 12 11 10 10 9 8 7 7 6 6 5 5 4 4 5 5 5 5 4 3 3 3 4 5 5 6 6 5 4 4 4 4 4 4 4 4 4 4 3 4 5 6 9 11 12 13 13
14 15 15 15 17 21 21 19 18 17 17 18 17 15 16 16 15 14 14 13 13 12 11 10 10 9 8 7 7 7 7 7 8 8 7 7 6 5 6 7 8 9 9 9 8 6 6 5 5 6 6 6 6 6 6 5 5 6 9 12 13 13 13
11 12 13 13 15 19 21 20 19 19 19 20 19 17 17 17 17 16 16 16 16 15 15 14 13 12 10 10 9 9 10 10 11 11 11 11 10 9 8 8 10 12 12 12 12 12 10 8 8 8 8 8 9 9 9 8 7 8 10 11 12 13 13
10 11 12 14 16 17 18 19 20 20 20 21 20 19 18 18 18 17 17 17 17 17 16 17 16 14 13 13 13 13 14 14 14 14 14 15 15 14 13 12 12 14 14 14 16 16 13 11 11 10 10 10 11 11 12 11 10 11 11 11 12 13 14
9 10 10 13 16 17 18 19 20 22 22 22 21 20 19 19 19 19 18 18 17 17 18 19 19 17 17 18 19 18 17 17 17 17 17 17 17 17 16 15 15 16 17 16 16 17 16 14 12 10 11 12 12 12 13 12 13 13 12 12 13 14 14
9 11 11 12 14 16 18 20 21 23 24 24 23 23 22 21 21 20 20 19 18 16 17 19 19 19 19 21 22 21 20 19 18 18 17 17 17 16 16 17 18 19 19 18 17 16 15 14 12 11 13 14 13 14 14 14 14 14 13 13 14 14 14
8 10 12 13 14 14 16 18 21 23 25 25 24 23 22 22 22 23 23 24 25 23 21 20 19 20 21 21 20 18 17 17 15 14 14 13 13 13 15 16 17 18 19 18 17 16 15 14 13 13 15 16 15 15 16 16 15 14 14 15 15 15 16
8 9 11 13 15 15 16 17 19 21 23 24 23 21 23 24 25 26 25 23 25 27 24 19 18 19 19 18 16 14 13 13 12 12 12 12 11 12 12 14 14 15 16 17 18 17 15 14 14 15 17 17 17 17 17 17 16 15 15 15 15 16 17
9 10 12 13 15 16 18 19 19 20 22 21 18 17 20 22 21 22 21 17 16 19 19 16 14 15 15 13 12 11 11 11 10 10 10 10 10 11 12 13 15 15 17 18 19 17 14 13 14 16 18 19 19 18 18 17 17 16 15 16 16 17 17
5 7 10 12 14 15 17 17 17 18 19 16 11 10 14 14 12 12 13 12 11 12 14 14 13 13 12 11 10 10 9 9 9 9 9 9 9 9 10 12 14 16 17 17 17 17 14 12 12 16 18 19 19 19 18 17 17 16 16 17 17 18 19
4 4 6 8 11 13 14 14 13 13 11 10 9 10 11 11 11 11 10 10 10 11 11 11 11 10 10 9 9 9 8 8 7 7 7 7 6 7 8 9 10 12 13 14 15 15 14 10 10 14 18 19 19 18 18 17 17 17 17 18 19 20 21
4 3 5 6 7 9 10 10 9 8 8 8 10 11 10 10 11 11 10 11 10 10 9 10 10 10 10 9 9 8 8 7 7 6 6 5 5 6 6 7 8 9 10 11 12 12 11 9 10 14 17 18 18 18 18 18 18 17 17 18 20 22 24
4 2 2 5 7 8 8 8 8 8 8 9 10 11 10 10 11 11 11 11 10 9 10 10 10 10 10 10 10 9 8 8 8 7 6 5 5 5 4 5 5 6 6 7 8 8 7 8 11 15 17 18 18 18 18 18 17 17 18 20 22 24 26
8 6 4 5 5 6 7 8 9 9 10 10 11 12 11 10 11 12 12 11 11 10 10 10 10 11 11 11 11 10 9 9 8 7 6 5 5 4 4 4 3 2 3 3 3 4 5 8 12 15 17 18 17 17 17 17 17 19 20 22 24 25 27
14 13 12 9 6 6 7 9 10 11 12 12 12 12 12 12 11 11 10 10 9 9 9 9 9 9 9 10 10 10 9 9 8 7 6 6 6 6 6 5 4 4 4 3 2 3 6 10 14 16 16 16 16 16 16 17 18 20 22 23 25 26 27
17 17 17 14 10 9 11 12 13 14 14 13 13 13 14 13 12 11 10 9 8 7 6 5 6 6 6 7 8 8 9 9 9 9 8 7 7 7 6 5 4 4 4 3 3 5 8 11 13 14 14 14 14 15 17 18 20 22 23 25 25 26 27
18 17 17 16 15 15 16 16 15 16 16 15 15 15 15 15 14 12 11 9 7 6 5 6 6 7 8 8 9 10 11 11 11 10 10 8 7 6 5 4 3 4 4 4 5 7 9 11 13 13 13 14 15 16 18 20 22 23 24 25 26 26 27
20 19 17 17 17 18 20 21 20 20 20 18 17 17 17 16 15 14 13 12 11 10 9 9 9 10 10 10 11 10 11 11 11 11 10 9 7 6 5 4 4 4 5 6 7 8 10 12 13 14 14 15 17 18 20 21 22 23 24 25 25 25 25
22 22 21 20 19 18 19 22 24 24 23 21 20 19 18 17 16 15 14 13 12 11 11 11 10 10 10 10 9 8 8 9 10 10 10 9 8 6 6 5 5 5 6 7 8 9 11 12 13 15 16 17 18 19 20 21 22 23 23 24 24 24 24
Wind_Direction
61 50 47 50 52 49 49 52 57 62 68 74 81 76 53 55 58 53 87 103 97 102 122 131 138 142 146 147 150 159 174 187 198 208 201 193 200 204 201 199 200 195 187 190 184 168 158 150 147 148 135 141 167 129 124 137 246 304 336 341 342 341 336
63 50 43 42 44 43 42 42 47 56 65 82 92 79 72 87 95 84 95 107 102 102 115 119 121 124 127 127 127 133 142 154 169 175 169 174 187 193 192 187 184 181 179 179 174 167 161 151 146 142 128 128 123 92 87 86 70 35 18 14 9 2 355
66 50 40 35 35 36 34 35 45 54 63 78 84 87 93 98 100 95 100 109 110 114 129 140 146 157 163 159 152 145 137 136 146 156 161 170 177 177 177 176 176 175 172 174 171 165 162 156 152 148 138 144 139 108 98 95 83 67 43 28 18 15 12
84 63 51 50 43 37 32 30 41 56 67 76 85 99 106 103 98 95 99 108 116 130 159 196 212 221 218 202 181 165 149 136 134 142 150 156 161 163 164 164 166 169 169 174 175 170 168 164 158 151 143 144 141 126 120 112 95 81 60 36 22 22 20
128 110 87 81 65 53 49 42 46 58 66 78 93 107 112 106 91 79 80 97 113 125 141 197 220 208 190 176 167 160 153 142 135 136 140 143 147 152 154 152 150 151 154 159 163 163 164 164 162 156 147 141 135 133 133 123 112 102 83 62 45 36 27
161 159 127 98 78 74 65 44 44 58 60 77 98 111 114 105 87 80 91 104 108 107 104 101 104 114 128 140 148 151 151 148 141 139 141 142 141 142 143 141 138 139 143 143 146 152 156 161 168 167 158 149 141 139 138 133 125 107 83 69 48 31 17
202 207 174 115 43 47 54 19 28 67 60 71 101 115 116 106 96 99 106 110 108 107 105 103 104 108 113 119 124 128 133 132 128 127 127 126 127 128 129 129 129 130 129 125 123 129 136 145 163 174 168 158 150 146 141 139 136 116 66 29 8 358 350
224 202 173 151 358 11 47 12 39 86 72 73 105 123 123 116 114 116 118 118 115 113 113 111 109 107 105 105 107 111 114 112 112 115 115 116 117 118 118 118 119 117 114 111 109 112 117 122 135 150 161 158 151 148 147 142 143 156 301 335 329 329 330
231 201 185 210 295 310 87 66 64 87 83 82 106 129 132 129 130 129 128 125 121 119 118 116 113 108 104 103 105 109 111 109 109 112 113 114 115 114 114 113 114 112 109 107 106 106 107 110 116 122 137 153 153 152 152 142 135 177 285 326 327 323 325
239 218 211 242 274 270 206 147 91 90 93 91 108 131 138 139 138 137 135 129 122 118 116 114 112 110 109 109 112 115 116 115 115 114 113 112 113 113 114 114 113 111 108 106 105 102 100 98 98 102 111 128 144 153 152 143 138 157 271 330 342 337 338
243 229 225 238 254 242 204 162 125 102 98 101 113 128 140 145 144 143 142 133 122 116 114 112 110 109 108 110 115 119 120 120 119 116 113 112 112 112 115 117 116 112 108 106 103 99 97 95 93 91 90 93 107 126 134 135 136 121 52 14 5 2 0
241 235 231 230 230 226 209 180 165 145 115 112 122 131 138 144 147 148 145 136 127 119 113 109 106 104 103 103 106 109 110 110 109 109 108 108 109 110 115 120 119 115 110 107 103 100 96 94 93 91 87 85 89 94 98 105 107 85 55 37 25 17 12
237 236 234 227 219 217 209 188 178 173 156 143 141 142 141 140 141 143 142 136 127 121 113 107 104 101 101 102 102 101 100 98 95 93 94 95 99 103 107 112 117 117 114 110 106 101 97 93 90 88 85 82 80 79 76 73 73 63 46 32 24 17 14
241 239 231 223 217 213 206 193 187 183 175 174 171 161 153 146 144 143 142 140 131 122 113 104 101 97 95 97 99 97 94 91 87 84 82 80 80 86 89 93 104 111 112 111 106 101 98 92 87 82 77 73 68 65 59 51 47 41 29 20 14 11 10
248 244 233 224 219 216 208 200 199 197 189 190 191 181 170 159 154 150 146 147 145 138 129 117 112 106 96 90 85 83 79 74 69 65 62 61 59 62 68 72 83 100 114 118 110 108 96 78 75 70 66 66 62 52 43 34 27 20 12 7 4 1 1
245 244 238 225 219 220 212 202 203 206 204 208 209 201 190 182 176 170 163 163 161 154 147 136 129 124 114 107 96 84 79 69 60 51 42 37 32 28 31 35 38 46 38 1 296 280 287 309 344 38 51 61 57 42 35 28 20 11 1 355 354 352 350
242 244 239 226 218 221 213 203 205 209 211 214 217 214 205 200 198 190 182 177 175 173 168 159 152 145 132 128 146 179 174 153 120 75 42 23 13 0 351 345 344 352 351 341 320 292 282 284 285 296 346 43 39 34 35 26 13 5 356 347 344 341 339
242 243 238 230 227 223 213 206 209 212 213 213 217 221 216 211 209 204 201 199 196 196 192 186 183 181 191 225 251 266 260 244 231 217 217 264 322 325 322 320 315 312 312 310 302 284 275 273 272 268 258 252 271 318 10 8 356 352 350 341 333 330 330
238 236 234 234 233 223 214 212 214 217 218 214 216 223 223 219 218 215 215 213 210 214 217 217 215 214 219 229 242 260 264 258 252 242 234 235 249 273 284 288 288 289 292 288 278 269 268 268 269 269 260 252 258 274 303 329 332 338 341 332 324 322 322
230 230 229 230 224 216 213 215 219 224 224 217 216 222 226 227 227 223 222 221 219 222 225 227 229 231 234 237 241 251 259 263 262 257 253 252 249 252 265 273 272 268 267 265 260 252 248 250 259 266 264 264 269 279 293 305 308 322 329 323 317 316 316
228 225 222 219 214 213 215 217 221 228 229 222 219 222 226 230 230 229 228 226 224 225 228 233 237 239 245 252 253 257 262 264 264 261 259 258 256 253 258 269 274 275 272 266 263 258 252 247 249 255 262 267 271 277 283 289 292 301 310 311 311 313 313
234 230 225 222 219 217 219 221 223 229 232 229 227 230 234 236 235 236 235 231 231 233 234 235 238 244 253 258 258 260 263 264 263 263 261 259 258 255 255 260 269 278 280 274 268 266 266 263 256 256 262 265 268 274 278 282 288 294 300 305 308 310 312
239 242 237 232 229 226 227 229 229 231 234 235 236 240 244 244 243 243 241 239 243 249 251 248 246 251 259 263 262 260 261 262 262 264 265 264 262 259 258 259 264 272 277 275 269 266 267 266 262 259 261 264 271 276 279 284 290 293 295 301 305 306 311
242 248 247 242 236 233 234 236 235 235 236 238 241 245 249 250 250 249 245 242 246 256 267 262 252 250 258 265 265 259 257 261 266 268 268 267 265 263 262 263 265 268 269 269 267 264 261 261 262 258 255 262 274 280 283 286 286 287 292 300 304 307 312
245 248 249 246 242 239 240 240 240 239 240 241 242 246 252 253 253 255 255 252 252 258 268 268 258 255 258 260 257 254 255 260 265 267 267 267 267 265 264 264 264 264 263 262 264 263 256 251 251 250 251 261 274 279 280 280 280 286 295 302 307 311 313
247 246 246 245 245 246 247 247 248 247 247 248 248 249 253 255 257 260 259 256 253 253 255 257 256 253 250 247 245 245 249 255 259 263 266 269 269 266 264 263 261 260 262 262 264 265 258 244 241 246 252 260 269 272 273 275 281 288 296 303 310 312 313
256 254 251 248 248 249 251 253 254 253 252 256 259 253 248 250 254 254 248 242 241 238 236 235 234 232 230 228 230 233 240 249 259 266 269 270 270 266 262 259 257 256 258 259 260 262 260 247 238 243 251 257 263 267 269 275 283 290 297 306 311 310 311
268 265 261 257 254 254 254 253 252 250 250 252 247 227 222 226 226 221 218 217 215 214 216 214 210 210 213 216 223 232 242 251 258 263 267 268 270 268 263 259 258 256 256 258 258 258 257 251 240 239 247 255 260 264 269 277 286 295 303 308 309 310 312
294 285 275 264 257 254 254 253 249 243 237 228 211 198 198 199 197 194 192 190 190 193 196 195 194 202 213 221 233 241 245 248 252 256 261 262 262 262 260 257 256 255 255 257 256 253 252 252 245 244 249 255 259 264 272 282 290 298 304 307 309 312 315
277 284 282 273 264 259 257 254 248 238 224 209 201 200 197 190 188 188 186 185 188 193 196 198 203 212 217 222 230 234 235 239 243 245 247 252 256 257 257 256 254 253 252 250 248 245 244 245 247 248 252 256 261 268 277 286 293 298 301 304 308 311 313
235 233 271 269 260 257 256 251 243 233 221 210 203 201 201 196 189 187 189 193 200 206 209 213 215 216 215 216 218 222 227 229 231 234 238 245 254 257 259 259 253 245 243 241 234 230 231 237 243 247 252 257 264 272 282 290 295 298 301 304 307 310 312
255 244 261 273 258 250 248 236 222 211 204 204 205 203 201 201 198 197 199 204 212 218 220 222 221 218 218 216 216 220 226 227 227 231 236 248 265 284 295 295 286 271 266 256 235 228 232 234 239 246 253 261 270 281 289 295 297 299 301 304 307 309 310
270 263 262 266 262 254 246 229 217 211 205 204 207 206 202 203 205 206 206 206 210 216 217 219 221 223 224 226 227 227 228 232 238 242 249 263 277 291 301 305 308 314 314 304 279 260 250 243 244 251 260 271 282 289 293 295 297 299 302 304 306 307 308
271 265 257 251 244 244 244 234 223 218 214 209 209 209 205 203 203 202 203 204 206 210 216 224 232 238 243 247 250 248 244 245 249 250 253 259 267 276 287 297 304 308 306 288 262 262 261 258 260 266 274 282 287 290 293 296 299 301 303 305 306 307 308
259 256 251 245 238 235 239 238 229 219 214 211 207 204 201 201 203 206 211 220 227 234 247 260 267 270 270 268 267 265 261 257 254 251 249 246 245 252 262 271 277 275 270 266 266 269 270 273 276 279 282 285 288 292 297 299 302 304 306 307 308 309 310
249 246 245 243 239 235 236 239 234 223 215 211 208 206 205 206 211 217 223 233 241 248 257 265 270 273 274 272 268 263 258 252 246 242 239 234 230 231 236 243 252 257 260 265 271 275 276 277 278 278 281 286 291 297 300 302 304 306 307 309 311 313 315
246 245 244 244 241 235 231 231 228 221 217 216 213 210 209 210 215 219 223 231 241 250 259 267 273 277 276 272 268 261 252 244 236 232 230 229 227 230 236 241 249 259 266 268 271 274 277 277 277 280 285 291 297 301 303 305 307 310 312 315 317 318 319